Miscellaneous Local Product
Issued by NWS Hastings, NE

Home | Current Version | Previous Version | Graphics & Text | Print | Product List | Glossary On
Versions: 1 2 3 4 5 6 7 8 9 10 11 12 13 14 15 16 17 18 19 20 21 22 23 24 25 26 27 28 29 30 31 32 33 34 35 36 37 38 39 40 41 42 43 44 45 46 47 48 49 50
000
AXUS43 KGID 011502
MISGRI

GID CWA HOURLY WEATHER ROUNDUP
NATIONAL WEATHER SERVICE HASTINGS NE
1000 AM CDT WED OCT 01 2014

NOTE: "FAIR" INDICATES FEW OR NO CLOUDS BELOW 12,000 FEET WITH NO
SIGNIFICANT WEATHER AND/OR OBSTRUCTIONS TO VISIBILITY.

...SOUTH CENTRAL NEBRASKA...

CITY           SKY/WX    TMP DP  RH WIND       PRES   REMARKS
GRAND ISLAND   SUNNY     64  62  93 SE7       29.77R
HASTINGS       SUNNY     65  59  81 S3        29.77R HAZE
KEARNEY        SUNNY     61  59  94 S3        29.78R
ORD            MOSUNNY   66  53  63 CALM      29.76R
YORK           SUNNY     64  63  94 E9        29.76S
AURORA           N/A    N/A N/A N/A MISG        N/A
LEXINGTON      SUNNY     59  59  99 NW6       29.79S
HOLDREGE       SUNNY     60  59  96 CALM      29.79R
HEBRON         PTSUNNY   65  62  90 NE6       29.77R

...NEBRASKA PANHANDLE...

CITY           SKY/WX    TMP DP  RH WIND       PRES   REMARKS
CHADRON        SUNNY     55  48  77 W7        29.85S
ALLIANCE       SUNNY     51  46  83 W7        29.86S
SCOTTSBLUFF    MOSUNNY   50  47  89 W6        29.89R
SIDNEY         MOSUNNY   58  44  60 N9        29.89R

...WESTERN AND NORTH CENTRAL NEBRASKA...

CITY           SKY/WX    TMP DP  RH WIND       PRES   REMARKS
VALENTINE      SUNNY     62  48  60 N8        29.82R
AINSWORTH      SUNNY     60  49  67 NW7       29.81R
ONEILL         MOSUNNY   63  54  71 N9        29.77R
BROKEN BOW     MOSUNNY   63  50  62 N12       29.78R
IMPERIAL       MOSUNNY   56  46  69 NW9       29.84R
NORTH PLATTE   SUNNY     58  50  75 W7        29.82R
MCCOOK         SUNNY     61  51  70 N6        29.81F

...EASTERN NEBRASKA...

CITY           SKY/WX    TMP DP  RH WIND       PRES   REMARKS
NORFOLK        MOSUNNY   66  59  78 SE8       29.74R
SO SIOUX CITY  SUNNY     66  61  84 S5        29.75F
TEKAMAH        MOSUNNY   66  61  84 SW3       29.76S
COLUMBUS       SUNNY     64  59  82 E8        29.76S
ALBION         PTSUNNY   62  61  94 S3        29.76R
OMAHA EPPLEY   PTSUNNY   66  61  84 NE3       29.76S
OFFUTT AFB     CLOUDY    64  64 100 E6        29.75S
MILLARD        PTSUNNY   67  62  85 CALM      29.76S
LINCOLN        CLOUDY    64  60  87 E5        29.77S
NEBRASKA CITY  CLOUDY    64  64 100 CALM      29.75S FOG
BEATRICE       CLOUDY    67  65  90 W5        29.75S
FALLS CITY     CLOUDY    66  64  93 SE8       29.75S

...NORTHERN KANSAS...

CITY           SKY/WX    TMP DP  RH WIND       PRES   REMARKS
GOODLAND       SUNNY     60  46  59 N8        29.87S
HILL CITY      CLOUDY    62  60  93 NE5       29.80S
NORTON         PTSUNNY   61  57  88 CALM      29.79
PHILLIPSBURG   SUNNY     70  61  73 CALM      29.79R
SMITH CENTER   SUNNY     66  61  82 NE5       29.78R
BELOIT         CLOUDY    63  63 100 N5        29.76S
HAYS           CLOUDY    61  57  88 NE7       29.79S
RUSSELL        FOG       63  62  97 N8        29.77R VSB 3/4
CONCORDIA      CLOUDY    66  65  96 N5        29.77S
SALINA         MOSUNNY   72  65  78 NW8       29.76R
TOPEKA         PTSUNNY   72  67  84 S7        29.76R



USA.gov is the U.S. government's official web portal to all federal, state and local government web resources and services.